Regional Weather Roundup
Issued by NWS Cleveland, OH

Home | Current Version | Previous Version | Graphics & Text | Print | Product List | Glossary On
Versions: 1 2 3 4 5 6 7 8 9 10 11 12 13 14 15 16 17 18 19 20 21 22 23 24 25 26 27 28 29 30 31 32 33 34 35 36 37 38 39 40 41 42 43 44 45 46 47 48 49 50
000
ASUS41 KCLE 290200
RWRCLE
OHIO REGIONAL WEATHER ROUNDUP
NATIONAL WEATHER SERVICE WILMINGTON, OH
1000 PM EDT SAT MAR 28 2015

NOTE: "FAIR" INDICATES FEW OR NO CLOUDS BELOW 12,000 FEET WITH NO
SIGNIFICANT WEATHER AND/OR OBSTRUCTIONS TO VISIBILITY.

OHZ001>008-015>018-024>027-034-035-043-044-290300-
   NORTHWEST OHIO

CITY           SKY/WX    TMP DP  RH WIND       PRES   REMARKS
DEFIANCE       CLEAR     26  14  60 CALM      30.31R
FINDLAY        CLEAR     27  19  72 S6        30.30R WCI  20
TOLEDO EXPRESS CLEAR     25  10  53 SW3       30.30R
TOLEDO EXEC    CLEAR     28  14  55 SW6       30.31R WCI  22
LIMA           CLEAR     28  16  60 S3        30.31R
$$

OHZ009>014-019>023-028>033-038-089-290300-
   NORTHEAST OHIO

CITY           SKY/WX    TMP DP  RH WIND       PRES   REMARKS
CLE-HOPKINS    CLEAR     23  10  57 CALM      30.33R
CLE-LAKEFRONT  CLEAR     25  14  63 SW6       30.31R WCI  18
CUY CO. ARPT   CLEAR     21  14  73 W5        30.31R WCI  15
LORAIN-ELYRIA  CLEAR     22  15  75 S3        30.31R
ASHTABULA      CLEAR     21  11  65 W3        30.28S
AKRON-CANTON   CLEAR     22   8  55 CALM      30.28R
WOOSTER        NOT AVBL
MANSFIELD      CLEAR     22  11  62 S3        30.29R
YOUNGSTOWN     CLEAR     20   9  62 W5        30.26R WCI  13
$$

OHZ042-051>053-060>062-070>072-077>081-290300-
  SOUTHWEST OHIO

CITY           SKY/WX    TMP DP  RH WIND       PRES   REMARKS
CINC-COVINGTON CLEAR     32  11  41 NE6       30.32R WCI  26
CINC-LUNKEN    CLEAR     28  17  63 CALM      30.36R
HAMILTON       CLEAR     25  17  72 N5        30.35R WCI  19
DAYTON         NOT AVBL
WRIGHT-PAT AFB NOT AVBL
DAYTON GENERAL CLEAR     29  13  51 N5        30.32R WCI  24
WILMINGTON     CLEAR     25  16  68 NE5       30.32R WCI  19
$$

OHZ036-037-039>041-045>050-054>059-063>069-073>076-082>088-290300-
  CENTRAL AND SOUTHEAST OHIO

CITY           SKY/WX    TMP DP  RH WIND       PRES   REMARKS
COLUMBUS       CLEAR     25  12  58 NE3       30.33R
OSU AIRPORT    CLEAR     25  11  55 CALM      30.33R
BOLTON FIELD   NOT AVBL
RICKENBACK AFB NOT AVBL
NEWARK         CLEAR     24  13  62 CALM      30.33R
MARION         CLEAR     22  13  68 S5        30.32R WCI  16
LANCASTER      CLEAR     25  16  68 CALM      30.34R
ZANESVILLE     CLEAR     24   8  50 N3        30.32R
NEW PHILLY     CLEAR     25   9  50 NW3       30.32R
$$


USA.gov is the U.S. government's official web portal to all federal, state and local government web resources and services.